Location: Sedan
(39.2354°N, 78.5718°W)
Time: 22:55:13
(UTC+00:00)

Envisat - Pass Details

Date: 08 December 2021
Orbit: 764 x 766 km, 98.2° (Epoch: 21 January)

Event Time Altitude Azimuth Distance (km) Brightness Sun altitude
Rises 11:24:42 0° 357° (N) 3,240 6.0 -10.8°
Reaches altitude 10° 11:27:31 10° 341° (NNW) 2,309 5.1 -10.3°
Maximum altitude 11:31:12 21° 295° (WNW) 1,693 4.2 -9.6°
Drops below altitude 10° 11:34:51 10° 248° (WSW) 2,298 5.1 -9.0°
Sets 11:37:40 0° 233° (SW) 3,219 5.9 -8.5°
